AMP YSBK-YSCB

Flight info

Callsign AMP
Flight time 1h 0m
Altitude 8000
Route BK PEGSU V169 CB
Aircraft H160/L-V/N

Departure

Time 2026-04-21 05:28
Airport Sydney Bankstown Airport (YSBK)

Arrival

Time 2026-04-21 06:28
Airport Canberra Airport (YSCB)
Time Latitude Longitude Altitude Speed Heading
2026-04-21 05:10 -33.92115 150.99189 35 ft 0 kts 300°
2026-04-21 05:17 -33.92114 150.99185 38 ft 3 kts 276°
2026-04-21 05:18 -33.92123 150.99148 44 ft 6 kts 253°
2026-04-21 05:18 -33.92160 150.99104 47 ft 6 kts 266°
2026-04-21 05:18 -33.92152 150.99060 53 ft 9 kts 312°
2026-04-21 05:18 -33.92109 150.98984 49 ft 14 kts 312°
2026-04-21 05:19 -33.92045 150.98867 49 ft 18 kts 312°
2026-04-21 05:19 -33.91975 150.98743 49 ft 14 kts 313°
2026-04-21 05:19 -33.91915 150.98673 45 ft 15 kts 331°
2026-04-21 05:19 -33.91839 150.98570 51 ft 15 kts 280°
2026-04-21 05:20 -33.91882 150.98495 47 ft 19 kts 182°
2026-04-21 05:20 -33.91970 150.98492 34 ft 1 kts 184°
2026-04-21 05:26 -33.91973 150.98491 34 ft 2 kts 186°
2026-04-21 05:26 -33.92004 150.98490 34 ft 6 kts 181°
2026-04-21 05:26 -33.92036 150.98503 35 ft 11 kts 147°
2026-04-21 05:27 -33.92087 150.98598 35 ft 25 kts 128°
2026-04-21 05:27 -33.92229 150.98872 93 ft 58 kts 136°
2026-04-21 05:27 -33.92500 150.99385 122 ft 83 kts 134°
2026-04-21 05:27 -33.92856 150.99979 272 ft 83 kts 136°
2026-04-21 05:28 -33.93248 151.00495 400 ft 86 kts 137°
2026-04-21 05:28 -33.93655 151.00968 547 ft 81 kts 161°
2026-04-21 05:28 -33.94198 151.00869 662 ft 86 kts 207°
2026-04-21 05:28 -33.94703 151.00495 812 ft 84 kts 207°
2026-04-21 05:29 -33.95199 151.00137 975 ft 82 kts 203°
2026-04-21 05:29 -33.95680 150.99798 1127 ft 78 kts 206°
2026-04-21 05:29 -33.96147 150.99477 1282 ft 76 kts 206°
2026-04-21 05:29 -33.96605 150.99170 1433 ft 74 kts 202°
2026-04-21 05:30 -33.97054 150.98879 1574 ft 72 kts 202°
2026-04-21 05:30 -33.97496 150.98600 1752 ft 71 kts 202°
2026-04-21 05:30 -33.97932 150.98333 1932 ft 70 kts 201°
2026-04-21 05:30 -33.98365 150.98078 2069 ft 68 kts 199°
2026-04-21 05:31 -33.98791 150.97832 2214 ft 68 kts 200°
2026-04-21 05:31 -33.99130 150.97393 2389 ft 72 kts 219°
2026-04-21 05:31 -33.99479 150.96881 2461 ft 85 kts 224°
2026-04-21 05:31 -33.99855 150.96275 2405 ft 94 kts 220°
2026-04-21 05:32 -34.00314 150.95660 2388 ft 102 kts 222°
2026-04-21 05:32 -34.00802 150.95032 2333 ft 105 kts 219°
2026-04-21 05:32 -34.01360 150.94451 2265 ft 107 kts 214°
2026-04-21 05:32 -34.01890 150.93796 2207 ft 111 kts 222°
2026-04-21 05:33 -34.02445 150.93153 2134 ft 111 kts 215°
2026-04-21 05:33 -34.03062 150.92582 2080 ft 112 kts 212°
2026-04-21 05:33 -34.03683 150.91999 2000 ft 114 kts 214°
2026-04-21 05:33 -34.04278 150.91367 1929 ft 117 kts 217°
2026-04-21 05:34 -34.04907 150.90683 2190 ft 123 kts 216°
2026-04-21 05:34 -34.05566 150.89982 2339 ft 132 kts 216°
2026-04-21 05:34 -34.06256 150.89214 2492 ft 137 kts 219°
2026-04-21 05:34 -34.06964 150.88429 2607 ft 139 kts 216°
2026-04-21 05:35 -34.07723 150.87698 2687 ft 141 kts 214°
2026-04-21 05:35 -34.08532 150.87021 2754 ft 142 kts 208°
2026-04-21 05:35 -34.09332 150.86316 2810 ft 145 kts 220°
2026-04-21 05:35 -34.10035 150.85447 2826 ft 146 kts 218°
2026-04-21 05:36 -34.10771 150.84588 2832 ft 148 kts 220°
2026-04-21 05:36 -34.11499 150.83714 2780 ft 148 kts 219°
2026-04-21 05:36 -34.12286 150.82923 2963 ft 140 kts 216°
2026-04-21 05:36 -34.12999 150.82204 3186 ft 128 kts 216°
2026-04-21 05:37 -34.13669 150.81540 3478 ft 122 kts 213°
2026-04-21 05:37 -34.14340 150.80928 3877 ft 117 kts 211°
2026-04-21 05:37 -34.14945 150.80316 4366 ft 112 kts 219°
2026-04-21 05:37 -34.15458 150.79642 4867 ft 106 kts 219°
2026-04-21 05:38 -34.15956 150.79003 5405 ft 103 kts 223°
2026-04-21 05:38 -34.16468 150.78397 5841 ft 105 kts 214°
2026-04-21 05:38 -34.16999 150.77776 6271 ft 108 kts 221°
2026-04-21 05:38 -34.17516 150.77085 6539 ft 114 kts 220°
2026-04-21 05:39 -34.18111 150.76438 6782 ft 116 kts 216°
2026-04-21 05:39 -34.18762 150.75857 7008 ft 117 kts 211°
2026-04-21 05:39 -34.19407 150.75239 7209 ft 121 kts 221°
2026-04-21 05:39 -34.19616 150.74955 7284 ft 122 kts 223°
2026-04-21 05:40 -34.19870 150.74624 7347 ft 125 kts 222°
2026-04-21 05:40 -34.20404 150.73910 7356 ft 123 kts 225°
2026-04-21 05:41 -34.20960 150.73117 7451 ft 125 kts 225°
2026-04-21 05:41 -34.21521 150.72319 7655 ft 125 kts 225°
2026-04-21 05:41 -34.22089 150.71522 7865 ft 125 kts 224°
2026-04-21 05:41 -34.22741 150.70839 8061 ft 123 kts 214°
2026-04-21 05:42 -34.23420 150.70208 8263 ft 124 kts 213°
2026-04-21 05:42 -34.24104 150.69579 8476 ft 124 kts 214°
2026-04-21 05:42 -34.24794 150.68944 8676 ft 125 kts 213°
2026-04-21 05:42 -34.25500 150.68289 8482 ft 135 kts 216°
2026-04-21 05:43 -34.26233 150.67598 8327 ft 126 kts 216°
2026-04-21 05:43 -34.26900 150.66962 8236 ft 122 kts 215°
2026-04-21 05:43 -34.27570 150.66322 8064 ft 122 kts 216°
2026-04-21 05:43 -34.28239 150.65674 8026 ft 123 kts 217°
2026-04-21 05:44 -34.28886 150.64998 8019 ft 123 kts 217°
2026-04-21 05:44 -34.29529 150.64312 8014 ft 123 kts 218°
2026-04-21 05:44 -34.30169 150.63627 8011 ft 123 kts 218°
2026-04-21 05:44 -34.30802 150.62952 8011 ft 123 kts 218°
2026-04-21 05:45 -34.31452 150.62258 8017 ft 123 kts 218°
2026-04-21 05:45 -34.32084 150.61579 8009 ft 123 kts 218°
2026-04-21 05:45 -34.32726 150.60893 8012 ft 123 kts 218°
2026-04-21 05:45 -34.33369 150.60208 8015 ft 124 kts 218°
2026-04-21 05:46 -34.34014 150.59518 8011 ft 123 kts 218°
2026-04-21 05:46 -34.34658 150.58833 8007 ft 124 kts 218°
2026-04-21 05:46 -34.35309 150.58147 8017 ft 124 kts 218°
2026-04-21 05:46 -34.35953 150.57465 8011 ft 123 kts 218°
2026-04-21 05:47 -34.36598 150.56780 8005 ft 124 kts 218°
2026-04-21 05:47 -34.37025 150.56325 8008 ft 123 kts 218°
2026-04-21 05:47 -34.37674 150.55642 8020 ft 124 kts 217°
2026-04-21 05:47 -34.38319 150.54954 8008 ft 123 kts 218°
2026-04-21 05:48 -34.38965 150.54269 8011 ft 124 kts 217°
2026-04-21 05:48 -34.39612 150.53583 8009 ft 123 kts 218°
2026-04-21 05:48 -34.40253 150.52901 8009 ft 123 kts 218°
2026-04-21 05:48 -34.40899 150.52219 8012 ft 122 kts 218°
2026-04-21 05:49 -34.41543 150.51542 8023 ft 124 kts 217°
2026-04-21 05:49 -34.42208 150.50886 8022 ft 122 kts 215°
2026-04-21 05:49 -34.42878 150.50251 8010 ft 123 kts 214°
2026-04-21 05:49 -34.43553 150.49614 8014 ft 122 kts 214°
2026-04-21 05:50 -34.44223 150.48977 8021 ft 123 kts 215°
2026-04-21 05:50 -34.44893 150.48341 8021 ft 122 kts 214°
2026-04-21 05:50 -34.45566 150.47704 8009 ft 123 kts 214°
2026-04-21 05:50 -34.46233 150.47075 8020 ft 123 kts 214°
2026-04-21 05:51 -34.46921 150.46427 8016 ft 124 kts 214°
2026-04-21 05:51 -34.47591 150.45797 8020 ft 123 kts 214°
2026-04-21 05:51 -34.48264 150.45160 8021 ft 123 kts 214°
2026-04-21 05:51 -34.48938 150.44524 8025 ft 122 kts 214°
2026-04-21 05:52 -34.49597 150.43861 8020 ft 124 kts 219°
2026-04-21 05:52 -34.50205 150.43124 8014 ft 125 kts 221°
2026-04-21 05:52 -34.50810 150.42370 8024 ft 124 kts 222°
2026-04-21 05:52 -34.51410 150.41618 8016 ft 124 kts 222°
2026-04-21 05:53 -34.52012 150.40866 8021 ft 124 kts 221°
2026-04-21 05:53 -34.52614 150.40113 8020 ft 125 kts 221°
2026-04-21 05:53 -34.53217 150.39359 8027 ft 124 kts 222°
2026-04-21 05:53 -34.53817 150.38607 8017 ft 124 kts 221°
2026-04-21 05:54 -34.54393 150.37823 8018 ft 125 kts 224°
2026-04-21 05:54 -34.54980 150.37053 8023 ft 124 kts 222°
2026-04-21 05:54 -34.55576 150.36291 8025 ft 125 kts 222°
2026-04-21 05:54 -34.56174 150.35531 8021 ft 125 kts 221°
2026-04-21 05:55 -34.56775 150.34767 8031 ft 125 kts 222°
2026-04-21 05:55 -34.57376 150.34007 8021 ft 125 kts 222°
2026-04-21 05:55 -34.57979 150.33248 8014 ft 125 kts 222°
2026-04-21 05:55 -34.58579 150.32490 8015 ft 125 kts 222°
2026-04-21 05:56 -34.59183 150.31736 8020 ft 124 kts 222°
2026-04-21 05:56 -34.59785 150.30984 8018 ft 125 kts 222°
2026-04-21 05:56 -34.60379 150.30243 8017 ft 124 kts 221°
2026-04-21 05:56 -34.60991 150.29479 8028 ft 125 kts 222°
2026-04-21 05:57 -34.61593 150.28731 8019 ft 124 kts 221°
2026-04-21 05:57 -34.62162 150.27960 8019 ft 126 kts 229°
2026-04-21 05:57 -34.62642 150.27069 8016 ft 127 kts 233°
2026-04-21 05:57 -34.63105 150.26156 8021 ft 127 kts 234°
2026-04-21 05:58 -34.63566 150.25242 8024 ft 127 kts 233°
2026-04-21 05:58 -34.64025 150.24322 8015 ft 127 kts 233°
2026-04-21 05:58 -34.64548 150.23458 8030 ft 127 kts 226°
2026-04-21 05:58 -34.65114 150.22645 8020 ft 125 kts 225°
2026-04-21 05:59 -34.65680 150.21842 8019 ft 126 kts 225°
2026-04-21 05:59 -34.66252 150.21036 8027 ft 126 kts 225°
2026-04-21 05:59 -34.66825 150.20226 8023 ft 126 kts 225°
2026-04-21 06:00 -34.67967 150.18611 8022 ft 126 kts 225°
2026-04-21 06:00 -34.68540 150.17807 8024 ft 126 kts 225°
2026-04-21 06:00 -34.69115 150.16999 8025 ft 126 kts 225°
2026-04-21 06:00 -34.69690 150.16191 8027 ft 127 kts 225°
2026-04-21 06:01 -34.70264 150.15384 8029 ft 126 kts 225°
2026-04-21 06:01 -34.70840 150.14576 8029 ft 126 kts 225°
2026-04-21 06:01 -34.71410 150.13775 8020 ft 125 kts 225°
2026-04-21 06:01 -34.71986 150.12971 8021 ft 127 kts 225°
2026-04-21 06:02 -34.72561 150.12168 8020 ft 126 kts 224°
2026-04-21 06:02 -34.73135 150.11362 8021 ft 126 kts 225°
2026-04-21 06:02 -34.73709 150.10556 8017 ft 126 kts 225°
2026-04-21 06:02 -34.74283 150.09750 8020 ft 126 kts 225°
2026-04-21 06:03 -34.74855 150.08940 8027 ft 126 kts 225°
2026-04-21 06:03 -34.75414 150.08119 8021 ft 127 kts 230°
2026-04-21 06:03 -34.75896 150.07216 8026 ft 127 kts 233°
2026-04-21 06:03 -34.76358 150.06293 8023 ft 128 kts 234°
2026-04-21 06:04 -34.76821 150.05371 8020 ft 127 kts 234°
2026-04-21 06:04 -34.77279 150.04444 8015 ft 128 kts 234°
2026-04-21 06:04 -34.77744 150.03512 8019 ft 129 kts 233°
2026-04-21 06:04 -34.78215 150.02588 8021 ft 128 kts 232°
2026-04-21 06:05 -34.78689 150.01672 8008 ft 135 kts 232°
2026-04-21 06:05 -34.79228 150.00667 8027 ft 143 kts 233°
2026-04-21 06:05 -34.79772 149.99650 8023 ft 141 kts 232°
2026-04-21 06:05 -34.80298 149.98650 8024 ft 143 kts 233°
2026-04-21 06:06 -34.80852 149.97656 8019 ft 142 kts 230°
2026-04-21 06:06 -34.81430 149.96661 8006 ft 148 kts 230°
2026-04-21 06:06 -34.82032 149.95641 8025 ft 147 kts 231°
2026-04-21 06:06 -34.82625 149.94627 8021 ft 148 kts 231°
2026-04-21 06:07 -34.83223 149.93608 8025 ft 148 kts 230°
2026-04-21 06:07 -34.83819 149.92592 8020 ft 147 kts 231°
2026-04-21 06:07 -34.84417 149.91577 8024 ft 148 kts 230°
2026-04-21 06:07 -34.85017 149.90559 8018 ft 148 kts 230°
2026-04-21 06:08 -34.85618 149.89537 8022 ft 149 kts 230°
2026-04-21 06:08 -34.86221 149.88510 8020 ft 149 kts 230°
2026-04-21 06:08 -34.86818 149.87488 8023 ft 148 kts 230°
2026-04-21 06:08 -34.87415 149.86464 8023 ft 148 kts 231°
2026-04-21 06:09 -34.88011 149.85445 8016 ft 147 kts 230°
2026-04-21 06:09 -34.88612 149.84421 8016 ft 149 kts 230°
2026-04-21 06:09 -34.89218 149.83393 8016 ft 150 kts 231°
2026-04-21 06:09 -34.89814 149.82379 8028 ft 149 kts 230°
2026-04-21 06:10 -34.90422 149.81342 8021 ft 149 kts 230°
2026-04-21 06:10 -34.91017 149.80327 8016 ft 149 kts 230°
2026-04-21 06:10 -34.91622 149.79298 8021 ft 148 kts 230°
2026-04-21 06:10 -34.92224 149.78277 8022 ft 148 kts 231°
2026-04-21 06:11 -34.92828 149.77259 8019 ft 149 kts 230°
2026-04-21 06:11 -34.93433 149.76240 8023 ft 148 kts 230°
2026-04-21 06:11 -34.94038 149.75220 8022 ft 148 kts 230°
2026-04-21 06:11 -34.94642 149.74204 8017 ft 148 kts 230°
2026-04-21 06:12 -34.95247 149.73184 8024 ft 148 kts 230°
2026-04-21 06:12 -34.95844 149.72170 8013 ft 148 kts 230°
2026-04-21 06:12 -34.96445 149.71150 8019 ft 147 kts 231°
2026-04-21 06:12 -34.97045 149.70131 8020 ft 148 kts 230°
2026-04-21 06:13 -34.97641 149.69107 8017 ft 148 kts 231°
2026-04-21 06:13 -34.98238 149.68085 8020 ft 148 kts 230°
2026-04-21 06:13 -34.98836 149.67056 8014 ft 148 kts 230°
2026-04-21 06:13 -34.99429 149.66030 8015 ft 148 kts 231°
2026-04-21 06:14 -35.00027 149.65005 7998 ft 146 kts 231°
2026-04-21 06:14 -35.00611 149.63989 7687 ft 147 kts 231°
2026-04-21 06:14 -35.01190 149.62967 7368 ft 146 kts 232°
2026-04-21 06:14 -35.01770 149.61946 7056 ft 147 kts 232°
2026-04-21 06:15 -35.02348 149.60926 6781 ft 146 kts 232°
2026-04-21 06:15 -35.02784 149.60122 7060 ft 94 kts 233°
2026-04-21 06:15 -35.03126 149.59443 6987 ft 108 kts 230°
2026-04-21 06:15 -35.03611 149.58584 6994 ft 133 kts 230°
2026-04-21 06:16 -35.04125 149.57683 7008 ft 126 kts 231°
2026-04-21 06:16 -35.04622 149.56801 7001 ft 126 kts 231°
2026-04-21 06:16 -35.05118 149.55924 6991 ft 126 kts 231°
2026-04-21 06:16 -35.05626 149.55023 6996 ft 127 kts 231°
2026-04-21 06:17 -35.06116 149.54147 6994 ft 126 kts 231°
2026-04-21 06:17 -35.06608 149.53264 6994 ft 125 kts 230°
2026-04-21 06:17 -35.07097 149.52380 6994 ft 126 kts 231°
2026-04-21 06:17 -35.07588 149.51494 6994 ft 125 kts 230°
2026-04-21 06:18 -35.08074 149.50612 6995 ft 126 kts 231°
2026-04-21 06:18 -35.08563 149.49731 6997 ft 125 kts 231°
2026-04-21 06:18 -35.09057 149.48847 6995 ft 126 kts 231°
2026-04-21 06:18 -35.09548 149.47966 6997 ft 125 kts 231°
2026-04-21 06:19 -35.10041 149.47081 6991 ft 127 kts 230°
2026-04-21 06:19 -35.10531 149.46201 6953 ft 124 kts 231°
2026-04-21 06:19 -35.11012 149.45328 6814 ft 124 kts 232°
2026-04-21 06:19 -35.11494 149.44457 6662 ft 123 kts 231°
2026-04-21 06:20 -35.11971 149.43588 6501 ft 124 kts 231°
2026-04-21 06:20 -35.12457 149.42716 6355 ft 124 kts 231°
2026-04-21 06:20 -35.12945 149.41835 6204 ft 126 kts 232°
2026-04-21 06:20 -35.13437 149.40954 6048 ft 125 kts 231°
2026-04-21 06:21 -35.13932 149.40069 5899 ft 126 kts 231°
2026-04-21 06:21 -35.14430 149.39178 5748 ft 128 kts 231°
2026-04-21 06:21 -35.14921 149.38286 5602 ft 128 kts 231°
2026-04-21 06:21 -35.15408 149.37382 5449 ft 130 kts 231°
2026-04-21 06:22 -35.15915 149.36456 5301 ft 129 kts 231°
2026-04-21 06:22 -35.16416 149.35548 5155 ft 130 kts 231°
2026-04-21 06:22 -35.16923 149.34627 4997 ft 132 kts 231°
2026-04-21 06:22 -35.17433 149.33704 4846 ft 130 kts 232°
2026-04-21 06:23 -35.17937 149.32768 4695 ft 133 kts 232°
2026-04-21 06:23 -35.18443 149.31838 4538 ft 133 kts 232°
2026-04-21 06:23 -35.18966 149.30905 4387 ft 133 kts 232°
2026-04-21 06:23 -35.19493 149.29988 4241 ft 130 kts 231°
2026-04-21 06:24 -35.20015 149.29068 4093 ft 132 kts 230°
2026-04-21 06:24 -35.20537 149.28149 3940 ft 132 kts 231°
2026-04-21 06:24 -35.21069 149.27227 3790 ft 133 kts 232°
2026-04-21 06:24 -35.21602 149.26307 3644 ft 132 kts 231°
2026-04-21 06:25 -35.22131 149.25387 3500 ft 132 kts 232°
2026-04-21 06:25 -35.22655 149.24473 3348 ft 133 kts 232°
2026-04-21 06:25 -35.23178 149.23543 3074 ft 130 kts 233°
2026-04-21 06:25 -35.23626 149.22721 2718 ft 101 kts 233°
2026-04-21 06:26 -35.23931 149.22081 2533 ft 89 kts 232°
2026-04-21 06:26 -35.24285 149.21371 2512 ft 107 kts 234°
2026-04-21 06:26 -35.24811 149.20744 2487 ft 107 kts 212°
2026-04-21 06:26 -35.25411 149.20165 2504 ft 113 kts 213°
2026-04-21 06:27 -35.26087 149.19653 2502 ft 117 kts 203°
2026-04-21 06:27 -35.26833 149.19220 2463 ft 120 kts 201°
2026-04-21 06:27 -35.27557 149.18778 2527 ft 116 kts 202°
2026-04-21 06:27 -35.28293 149.18311 2404 ft 119 kts 202°
2026-04-21 06:28 -35.28992 149.17915 2274 ft 99 kts 184°
2026-04-21 06:28 -35.29508 149.18063 2178 ft 61 kts 150°
2026-04-21 06:28 -35.29856 149.18258 2081 ft 48 kts 143°
2026-04-21 06:28 -35.30094 149.18432 1990 ft 33 kts 137°
2026-04-21 06:29 -35.30215 149.18544 1924 ft 16 kts 134°
2026-04-21 06:29 -35.30272 149.18601 1882 ft 1 kts 134°
2026-04-21 06:29 -35.30293 149.18628 1863 ft 2 kts 135°
2026-04-21 06:29 -35.30293 149.18630 1860 ft 0 kts 137°